Regional Weather Roundup
Issued by NWS

Home | Current Version | Previous Version | Text Only | Print | Product List | Glossary Off
Versions: 1 2 3 4 5 6 7 8 9 10 11 12 13 14 15 16 17 18 19 20 21 22 23 24 25 26 27 28 29 30 31 32 33 34 35 36 37 38 39 40 41 42 43 44 45 46 47 48 49 50

000
ASUS43 KMPX 220301
RWRMN
WEATHER ROUNDUP FOR MINNESOTA
NATIONAL WEATHER SERVICE TWIN CITIES/CHANHASSEN MN
1000 PM CDT THU SEP 21 2017


NOTE: "FAIR" INDICATES FEW OR NO CLOUDS BELOW 12,000 FEET WITH NO
SIGNIFICANT WEATHER AND/OR OBSTRUCTIONS TO VISIBILITY. N/A MEANS
CURRENT SKY AND/OR WEATHER CONDITIONS ARE NOT AVAILABLE.

MNZ060>063-068>070-220400-
   Twin Cities Metro

CITY           SKY/WX    TMP DP  RH WIND       PRES   REMARKS
TWIN CITIES    PTCLDY    78  68  71 SE10      29.82R
ST PAUL        CLEAR     76  68  76 SE10      29.82R
CRYSTAL        PTCLDY    78  64  61 SE10      29.80R
BLAINE         PTCLDY    79  66  65 SE12G18   29.81R
LAKEVILLE      MOCLDY    73  66  78 SE5       29.83R
EDEN PRAIRIE   MOCLDY    78  69  73 SE12      29.80R
SOUTH ST PAUL  CLEAR     78  65  65 S6        29.82R
LAKE ELMO      FAIR      75  66  73 SE5       29.84S
$$
MNZ001>005-007-008-013>017-022>024-027-028-220400-
   Northwest Minnesota

CITY           SKY/WX    TMP DP  RH WIND       PRES   REMARKS
BEMIDJI        PTCLDY    66  56  70 SE12      29.79F
HALLOCK          N/A     70  52  52 SE9       29.72S
ROSEAU           N/A     64  54  68 SE5       29.77F
WARROAD        PTCLDY    66  55  68 SE5       29.79S
CROOKSTON      PTCLDY    70  55  60 SE7       29.74S
FOSSTON        PTCLDY    66  55  68 SE12      29.76S
DETROIT LAKES  PTCLDY    70  63  78 SE9       29.78R
MOORHEAD       CLEAR     72  64  78 SE7       29.72S
PARK RAPIDS    PTCLDY    70  63  78 SE8       29.79S
MAHNOMEN       FAIR      69  60  71 SE12      29.75R
$$
MNZ006-009>011-018-025>026-220400-
   North Central Minnesota

CITY           SKY/WX    TMP DP  RH WIND       PRES   REMARKS
BAUDETTE       PTCLDY    64  51  62 SE10      29.79S
FLAG ISLAND    CLOUDY    64  52  63 CALM      29.79R
INTL FALLS     MOCLDY    63  53  70 SE7       29.83R
WASKISH        PTCLDY    66  57  72 SE8       29.79S
BIG FORK       CLEAR     64  55  72 SE7       29.84F
LONGVILLE      MOCLDY    66  61  82 E5        29.83R
GRAND RAPIDS   CLOUDY    64  58  80 SE7       29.87S
CRANE LAKE     CLOUDY    61  52  72 SE5       29.89S
ORR            PTCLDY    61  52  72 SE8G16    29.84F
COOK           CLOUDY    61  54  77 SE7       29.89S
WALKER         CLOUDY    67  59  76 E3        29.81R
$$
MNZ012-019>021-037-220400-
   Northeast Minnesota

CITY           SKY/WX    TMP DP  RH WIND       PRES   REMARKS
DULUTH         MOCLDY    58  54  86 E10       29.90F
ELY            MOCLDY    59  50  72 SE7       29.90F
HIBBING        MOCLDY    59  54  83 SE6       29.89F
EVELETH        PTCLDY    60  49  67 CALM      29.91S
DULUTH HARBOR  MOCLDY    61  57  88 NE18      29.91F
TWO HARBORS    CLEAR     63  55  77 E6        29.91F
SILVER BAY     MOCLDY    61  52  72 NE8       29.92S
GRAND MARAIS     N/A     63  49  60 NE10      29.95S
$$
MNZ029>031-032-039>041-046>048-054>057-064-220400-
   West Central Minnesota

CITY           SKY/WX    TMP DP  RH WIND       PRES   REMARKS
FERGUS FALLS   CLEAR     73  66  78 SE12G17   29.73R
WHEATON        PTCLDY    70  66  88 SE7       29.73R
MORRIS         CLEAR     75  70  83 SE10      29.73S
ALEXANDRIA     MOCLDY    73  68  84 SE10      29.79R
ELBOW LAKE     FAIR      73  69  86 E12       29.74S
WADENA         CLEAR     70  64  83 SE10      29.78S
GLENWOOD       CLEAR     72  68  88 E8        29.79S
APPLETON       CLEAR     77  70  78 SE6       29.72S
BENSON         MOCLDY    77  70  78 S12       29.76S
ORTONVILLE     PTCLDY    75  70  83 NE7       29.72R
MADISON        CLEAR     77  72  83 SE8       29.72S
WILLMAR        FAIR      73  70  88 E7        29.78S
$$
MNZ033>034-036-042>043-049>051-058-059-220400-
   Central Minnesota

CITY           SKY/WX    TMP DP  RH WIND       PRES   REMARKS
ST CLOUD       PTCLDY    73  69  87 E7        29.80R
SAUK CENTRE    FAIR      71  67  88 E7        29.79S
PAYNESVILLE    PTCLDY    73  69  87 E6        29.79S
AITKIN         PTCLDY    63  61  94 E5        29.83S
PINE RIVER     MOCLDY    64  57  77 SE10      29.85R
BRAINERD       MOCLDY    71  66  84 E6        29.81S
STAPLES        PTCLDY    72  64  78 SE6       29.80R
LITTLE FALLS   PTCLDY    72  61  68 SE7       29.80S
LITCHFIELD     PTCLDY    73  72  94 SE3       29.79S
BUFFALO        MOCLDY    76  67  74 SE7       29.81R
MAPLE LAKE     MOCLDY    76  70  82 CALM      29.81R
HUTCHINSON     MOCLDY    74  72  91 SE3       29.80S
$$
MNZ037-044-045-052-053-220400-
   East Central Minnesota

CITY           SKY/WX    TMP DP  RH WIND       PRES   REMARKS
PRINCETON      PTCLDY    75  68  78 E7        29.81S
MORA           PTCLDY    70  64  83 E7        29.85S
RUSH CITY      MOCLDY    73  66  81 SE5       29.83F
MOOSE LAKE     PTCLDY    61  55  82 NE5       29.85F
HINCKLEY       MOCLDY    72  68  88 E6        29.84F
CLOQUET        MOCLDY    61  54  77 E7        29.89S
MCGREGOR       CLEAR     63  59  88 E6        29.86S
$$
MNZ071>073-080-081-089-090-097-098-220400-
   Southwest Minnesota

CITY           SKY/WX    TMP DP  RH WIND       PRES   REMARKS
MONTEVIDEO     CLOUDY    75  70  83 SE6       29.74S
GRANITE FALLS  PTCLDY    78  71  80 E6        29.75F
CANBY          CLEAR     73  70  89 E6        29.74R
MARSHALL       CLEAR     73  70  90 SE6       29.74S
REDWOOD FALLS  CLOUDY    76  69  79 SE7       29.75S
OLIVIA         CLOUDY    77  70  78 SE8       29.76S
PIPESTONE      CLEAR     75  72  88 S8        29.76R
WINDOM         CLEAR     75  70  83 SE12      29.78S
WORTHINGTON    CLEAR     77  72  84 SE10      29.78
JACKSON        CLEAR     77  70  78 SE10G18   29.79S
TRACY          CLEAR     78  72  82 S6        29.75S
SLAYTON        CLEAR     73  69  86 SE8       29.77S
$$
MNZ065>067-074>077-082>085-091>093-220400-
   South Central Minnesota

CITY           SKY/WX    TMP DP  RH WIND       PRES   REMARKS
MANKATO        CLOUDY    80  71  74 S15       29.80S
NEW ULM        CLOUDY    77  70  78 SE8       29.77S
ST JAMES       CLEAR     75  70  83 SE12      29.79S
FAIRMONT       PTCLDY    77  71  82 SE12      29.80S
GLENCOE        MOCLDY    77  73  88 SE6       29.79R
FARIBAULT      CLOUDY    79  70  73 SE8       29.84R
OWATONNA       MOCLDY    81  70  69 SE10      29.84R
WASECA         CLOUDY    79  70  73 SE9       29.84R
ALBERT LEA     CLOUDY    82  72  69 S13G18    29.85R
$$
MNZ078>079-086>088-094>096-220400-
   Southeast Minnesota

CITY           SKY/WX    TMP DP  RH WIND       PRES   REMARKS
ROCHESTER      CLEAR     73  67  81 S8        29.89R
RED WING       CLEAR     77  63  61 SE10      29.84R
STANTON        PTCLDY    78  67  67 S7        29.82R
DODGE CENTER   CLEAR     79  66  65 SE8G16    29.87R
WINONA         CLEAR     77  63  61 SE6       29.89R
AUSTIN         PTCLDY    79  68  69 S9        29.87R
PRESTON        CLEAR     74  64  72 SE12      29.91R
$$
ABBREVIATIONS USED IN REMARKS
   TC - TEMPERATURES IN CELSIUS
  WCI - WIND CHILL INDEX
   HX - HEAT INDEX
  VSB - VISIBILITY
$$




USA.gov is the U.S. government's official web portal to all federal, state and local government web resources and services.